Regional Weather Roundup
Issued by NWS

Home | Current Version | Previous Version | Graphics & Text | Print | Product List | Glossary On
Versions: 1 2 3 4 5 6 7 8 9 10 11 12 13 14 15 16 17 18 19 20 21 22 23 24 25 26 27 28 29 30 31 32 33 34 35 36 37 38 39 40 41 42 43 44 45 46 47 48 49 50
000
ASUS43 KLSX 120057
RWRMO

WEATHER SUMMARY FOR MISSOURI
NATIONAL WEATHER SERVICE SPRINGFIELD MO
700 PM CST MON DEC 11 2017

NOTE: "FAIR" INDICATES FEW OR NO CLOUDS BELOW 12,000 FEET WITH NO
       SIGNIFICANT WEATHER AND/OR OBSTRUCTIONS TO VISIBILITY.
       CURRENT SKY AND/OR WEATHER CONDITIONS ARE NOT AVAILABLE FOR
       CHILLICOTHE AND FARMINGTON.

MOZ001>031-035>038-043-044-053-054-120200-
...NORTHERN AND WESTERN MISSOURI...

CITY           SKY/WX    TMP DP  RH WIND       PRES   REMARKS
KANSAS CTY INT CLOUDY    44  34  67 NW16G29   30.12R
LEE`S SUMMIT   CLOUDY    46  33  60 NW24G39   30.10R
ST JOSEPH      CLOUDY    44  34  67 N26G33    30.14R
CHILLICOTHE      N/A     44  31  60 NW17G24   30.07R

$$
MOZ066>068-077>081-088>096-101>105-120200-
...SOUTHWEST MISSOURI...

CITY           SKY/WX    TMP DP  RH WIND       PRES   REMARKS
SPRINGFIELD    CLOUDY    51  27  39 NW23G33   30.05R
JOPLIN         PTCLDY    51  28  41 NW12      30.11R
BRANSON        MOCLDY    52  19  28 NW21G28   30.06R

$$
MOZ032>034-039>042-045>050-055>058-069>072-120200-
...CENTRAL MISSOURI...

CITY           SKY/WX    TMP DP  RH WIND       PRES   REMARKS
COLUMBIA       NOT AVBL
JEFFERSON CITY CLOUDY    50  31  48 NW18G29   30.00R
ROLLA          CLOUDY    48  29  47 NW22G30   29.98R
SEDALIA        CLOUDY    49  34  56 NW18G28   30.05R
WARRENSBURG    CLOUDY    48  32  53 W17G25    30.06R

$$
MOZ051-052-059>065-120200-
...EAST CENTRAL MISSOURI...

CITY           SKY/WX    TMP DP  RH WIND       PRES   REMARKS
ST LOUIS INTL  CLOUDY    48  32  53 W16G29    29.91R

$$
MOZ072>076-082>087-097>100-106>115-120200-
...SOUTH CENTRAL AND SOUTHEAST MISSOURI...

CITY           SKY/WX    TMP DP  RH WIND       PRES   REMARKS
CAPE GIRARDEAU PTCLDY    48  25  40 W10       29.91R
POPLAR BLUFF   MOCLDY    55  23  28 NW12G24   29.94R
WEST PLAINS    PTCLDY    51  20  29 W8        29.99R

$$


USA.gov is the U.S. government's official web portal to all federal, state and local government web resources and services.